SL-14 DEB

Satellite information

Favourite Embed

Satellite Type and Status

DEBRISIN ORBIT

Key statistics

Satellite SL-14 DEB at a glance.

Uptime

14184

Days in orbit

Revolutions

≈ 14.1

Per day

Orbit

LEO

Low Earth Orbit

Inclination

82.5

Latest

Satellite identification and parameters

Extended collection of information and parameters for SL-14 DEB.

Object identification

Identified? True

Debris? True

Object name: SL-14 DEB

International designator: 1986-101H

Object number (NORAD): 17273

Object ID (CCSDS): 17273

Country: COMMONWEALTH OF INDEPENDENT STATES (CIS)

Current information (Y/N): Y

RCS size: SMALL

Orbital parameters

Period: 101.976 minutes

Inclination: 82.5435 deg

SMA: 7230.347 km

Apoapsis: 867.677 km

Periapsis: 836.747 km

RAAN: 160.3826 deg

Eccentricy: 0.00213884

Argument of periapsis: 193.8111 deg

Mean anomaly: 225.2775 deg

Mean motion: 14.12095445 rev/day

Mean motion (dot): 0.00001362 rev/day2

B* drag term: 0.00073320165 1/REarth

Two-line elements (TLE)

Creation date: Oct. 18, 2025, 2:17 a.m.

Reference frame: TEME

Reference center: EARTH

Epoch: Oct. 17, 2025, 10:04 p.m. UTC

TLE line 0: 0 SL-14 DEB

TLE line 1: 1 17273U 86101H 25290.92003766 .00001362 00000-0 73320-3 0 9997

TLE line 2: 2 17273 82.5435 160.3826 0021388 193.8111 225.2775 14.12095445985413

Live tracking on map

Real-time ground track for satellite SL-14 DEB.

In-orbit conjunctions

A list of the most updated potential collisions computed for object SL-14 DEB.

Target Orbit TCA Probability of collision Miss distance Type
CZ-6A DEB LEO 2025-01-18 00:26:42 0.0007610443 628.0 (m) DEBRIS
FENGYUN 1C DEB SSO 2024-09-28 07:43:55 0.000145371 143.0 (m) DEBRIS
FENGYUN 1C DEB SSO 2024-09-19 08:21:04 0.0003741962 64.0 (m) DEBRIS
FENGYUN 1C DEB SSO 2024-07-13 12:23:24 0.0003877845 47.0 (m) DEBRIS

Associated space launch

Ionospheric research satellite

SL-14 DEB was lifted into orbit during the mission ‘Tsiklon-3 | Ionozond-E’, on board a Tsiklon-3 space rocket.

The launch took place on Dec. 18, 1986, 8 a.m. from 32/2.

For more information about the launch, click the button.

Launch to space Tsiklon-3 | Ionozond-E
Tsiklon-3 | Ionozond-E

Agency: N/A

Status: Launch Successful

Launch date: Dec. 18, 1986, 8 a.m. UTC

Rocket: Tsiklon-3

Launch pad: 32/2

Location: Plesetsk Cosmodrome, Russian Federation

...

Latest news about this satellite

There are no fresh news available about this satellite. Check back as we update our databases every day.


Newsletter sign-up

Weekly statistics, charts and insights to help you stay on top of the space industry.